Stündliche Wetter Labunie

Heute, 8 Mai, Samstag

Zeit Temperatur Niederschläge Wind Luftdruck Luftfeuchtigkeit
00:00 +3°C° 0.1 mm 5 m/S 737 mmHg 92%
01:00 +3°C° 0.1 mm 6 m/S 737 mmHg 91%
02:00 +3°C° 0 mm 6 m/S 738 mmHg 91%
03:00 +2°C° 0.1 mm 6 m/S 738 mmHg 92%
04:00 0°C° 0.1 mm 7 m/S 739 mmHg 93%
05:00 0°C° 0.1 mm 7 m/S 739 mmHg 94%
06:00 0°C° 0.1 mm 7 m/S 740 mmHg 92%
07:00 +2°C° 0.1 mm 7 m/S 740 mmHg 90%
08:00 +2°C° 0 mm 6 m/S 741 mmHg 88%
09:00 +3°C° 0.1 mm 6 m/S 741 mmHg 85%
10:00 +3°C° 0.1 mm 6 m/S 742 mmHg 82%
11:00 +4°C° 0.1 mm 6 m/S 742 mmHg 78%
12:00 +5°C° 0.1 mm 6 m/S 742 mmHg 72%
13:00 +7°C° 0.1 mm 6 m/S 742 mmHg 66%
14:00 +8°C° 0.1 mm 6 m/S 743 mmHg 60%
15:00 +8°C° 0.3 mm 6 m/S 743 mmHg 60%
16:00 +9°C° 0.3 mm 5 m/S 743 mmHg 61%
17:00 +9°C° 0.3 mm 5 m/S 743 mmHg 61%
18:00 +7°C° 0.1 mm 4 m/S 743 mmHg 67%
19:00 +7°C° 0.1 mm 3 m/S 743 mmHg 73%
20:00 +5°C° 0.1 mm 2 m/S 744 mmHg 80%
21:00 +4°C° 0 mm 2 m/S 744 mmHg 81%
22:00 +5°C° 0 mm 1 m/S 744 mmHg 83%
23:00 +4°C° 0 mm 1 m/S 745 mmHg 84%

Morgen, 9 Mai, Sonntag

Zeit Temperatur Niederschläge Wind Luftdruck Luftfeuchtigkeit
00:00 +4°C° 0 mm 1 m/S 745 mmHg 84%
01:00 +3°C° 0 mm 2 m/S 745 mmHg 84%
02:00 +3°C° 0 mm 2 m/S 745 mmHg 83%
03:00 +3°C° 0 mm 2 m/S 746 mmHg 84%
04:00 +3°C° 0 mm 2 m/S 746 mmHg 85%
05:00 +2°C° 0 mm 2 m/S 746 mmHg 86%
06:00 +5°C° 0 mm 2 m/S 746 mmHg 79%
07:00 +7°C° 0 mm 2 m/S 746 mmHg 73%
08:00 +9°C° 0 mm 2 m/S 746 mmHg 67%
09:00 +10°C° 0 mm 3 m/S 746 mmHg 62%
10:00 +12°C° 0 mm 3 m/S 746 mmHg 57%
11:00 +13°C° 0 mm 3 m/S 746 mmHg 52%
12:00 +14°C° 0 mm 3 m/S 746 mmHg 50%
13:00 +15°C° 0 mm 4 m/S 746 mmHg 48%
14:00 +17°C° 0 mm 4 m/S 746 mmHg 45%
15:00 +17°C° 0 mm 4 m/S 745 mmHg 48%
16:00 +17°C° 0 mm 4 m/S 745 mmHg 51%
17:00 +17°C° 0 mm 4 m/S 745 mmHg 54%
18:00 +14°C° 0 mm 3 m/S 745 mmHg 62%
19:00 +13°C° 0 mm 3 m/S 745 mmHg 69%
20:00 +11°C° 0 mm 3 m/S 745 mmHg 77%
21:00 +10°C° 0 mm 3 m/S 745 mmHg 79%
22:00 +9°C° 0 mm 3 m/S 745 mmHg 81%
23:00 +9°C° 0 mm 3 m/S 745 mmHg 83%

übermorgen, 10 Mai, Montag

Zeit Temperatur Niederschläge Wind Luftdruck Luftfeuchtigkeit
00:00 +8°C° 0 mm 3 m/S 745 mmHg 83%
01:00 +8°C° 0 mm 3 m/S 745 mmHg 83%
02:00 +7°C° 0 mm 3 m/S 745 mmHg 83%
03:00 +7°C° 0 mm 3 m/S 745 mmHg 83%
04:00 +5°C° 0 mm 3 m/S 745 mmHg 83%
05:00 +5°C° 0 mm 3 m/S 745 mmHg 83%
06:00 +7°C° 0 mm 4 m/S 745 mmHg 78%
07:00 +9°C° 0 mm 5 m/S 745 mmHg 73%
08:00 +12°C° 0 mm 5 m/S 745 mmHg 68%
09:00 +14°C° 0 mm 6 m/S 745 mmHg 64%
10:00 +15°C° 0 mm 6 m/S 745 mmHg 60%
11:00 +17°C° 0 mm 7 m/S 745 mmHg 56%
12:00 +18°C° 0 mm 7 m/S 744 mmHg 55%
13:00 +20°C° 0 mm 7 m/S 744 mmHg 54%
14:00 +20°C° 0 mm 7 m/S 744 mmHg 53%
15:00 +20°C° 0 mm 7 m/S 744 mmHg 57%
16:00 +20°C° 0 mm 7 m/S 744 mmHg 60%
17:00 +20°C° 0 mm 7 m/S 743 mmHg 64%
18:00 +17°C° 0 mm 6 m/S 743 mmHg 68%
19:00 +16°C° 0 mm 6 m/S 744 mmHg 72%
20:00 +14°C° 0 mm 5 m/S 744 mmHg 76%
21:00 +13°C° 0 mm 5 m/S 744 mmHg 78%
22:00 +13°C° 0 mm 5 m/S 744 mmHg 80%
23:00 +12°C° 0 mm 5 m/S 744 mmHg 81%

11 Mai, Dienstag

Zeit Temperatur Niederschläge Wind Luftdruck Luftfeuchtigkeit
00:00 +10°C° 0 mm 5 m/S 744 mmHg 82%
01:00 +9°C° 0 mm 5 m/S 744 mmHg 84%
02:00 +10°C° 0 mm 4 m/S 743 mmHg 85%
03:00 +8°C° 0 mm 4 m/S 743 mmHg 84%
04:00 +8°C° 0 mm 5 m/S 743 mmHg 83%
05:00 +8°C° 0 mm 5 m/S 743 mmHg 82%
06:00 +9°C° 0 mm 6 m/S 743 mmHg 79%
07:00 +11°C° 0 mm 6 m/S 743 mmHg 76%
08:00 +12°C° 0 mm 7 m/S 743 mmHg 72%
09:00 +15°C° 0 mm 7 m/S 743 mmHg 68%
10:00 +16°C° 0 mm 7 m/S 743 mmHg 63%
11:00 +18°C° 0 mm 8 m/S 743 mmHg 59%
12:00 +20°C° 0 mm 8 m/S 743 mmHg 58%
13:00 +20°C° 0 mm 8 m/S 742 mmHg 56%
14:00 +21°C° 0 mm 8 m/S 742 mmHg 54%
15:00 +21°C° 0 mm 8 m/S 742 mmHg 57%
16:00 +20°C° 0 mm 7 m/S 741 mmHg 59%
17:00 +20°C° 0 mm 7 m/S 741 mmHg 62%
18:00 +17°C° 0 mm 7 m/S 741 mmHg 64%
19:00 +16°C° 0 mm 6 m/S 741 mmHg 66%
20:00 +14°C° 0 mm 6 m/S 741 mmHg 68%
21:00 +13°C° 0 mm 6 m/S 741 mmHg 67%
22:00 +13°C° 0 mm 6 m/S 741 mmHg 67%
23:00 +11°C° 0 mm 6 m/S 741 mmHg 67%

12 Mai, Mittwoch

Zeit Temperatur Niederschläge Wind Luftdruck Luftfeuchtigkeit
00:00 +10°C° 0 mm 6 m/S 740 mmHg 70%
01:00 +10°C° 0 mm 6 m/S 740 mmHg 73%
02:00 +9°C° 0 mm 6 m/S 739 mmHg 76%
03:00 +9°C° 0 mm 6 m/S 739 mmHg 80%
04:00 +9°C° 0 mm 5 m/S 739 mmHg 84%
05:00 +9°C° 0 mm 5 m/S 739 mmHg 88%
06:00 +10°C° 0 mm 6 m/S 739 mmHg 85%
07:00 +11°C° 0 mm 6 m/S 739 mmHg 82%
08:00 +14°C° 0 mm 7 m/S 739 mmHg 79%
09:00 +15°C° 0 mm 7 m/S 738 mmHg 74%
10:00 +16°C° 0 mm 7 m/S 738 mmHg 69%
11:00 +17°C° 0 mm 7 m/S 738 mmHg 65%
12:00 +17°C° 0 mm 8 m/S 738 mmHg 60%
13:00 +18°C° 0 mm 8 m/S 737 mmHg 55%
14:00 +18°C° 0 mm 8 m/S 737 mmHg 51%
15:00 +17°C° 0 mm 8 m/S 737 mmHg 56%
16:00 +16°C° 0 mm 8 m/S 737 mmHg 62%
17:00 +15°C° 0 mm 8 m/S 736 mmHg 67%
18:00 +14°C° 0 mm 7 m/S 736 mmHg 70%
19:00 +11°C° 0 mm 7 m/S 736 mmHg 73%
20:00 +10°C° 0 mm 7 m/S 736 mmHg 76%
21:00 +9°C° 0 mm 6 m/S 736 mmHg 77%
22:00 +9°C° 0 mm 6 m/S 736 mmHg 77%
23:00 +8°C° 0 mm 5 m/S 736 mmHg 78%

13 Mai, Donnerstag

Zeit Temperatur Niederschläge Wind Luftdruck Luftfeuchtigkeit
00:00 +8°C° 0 mm 5 m/S 736 mmHg 83%
01:00 +7°C° 0 mm 5 m/S 735 mmHg 88%
02:00 +6°C° 0 mm 4 m/S 735 mmHg 92%
03:00 +6°C° 0 mm 4 m/S 735 mmHg 94%
04:00 +5°C° 0 mm 5 m/S 735 mmHg 95%
05:00 +3°C° 0 mm 5 m/S 735 mmHg 97%
06:00 +5°C° 0 mm 5 m/S 735 mmHg 92%
07:00 +6°C° 0 mm 5 m/S 735 mmHg 88%
08:00 +7°C° 0 mm 6 m/S 735 mmHg 84%
09:00 +8°C° 0 mm 6 m/S 734 mmHg 81%
10:00 +9°C° 0 mm 5 m/S 734 mmHg 78%
11:00 +9°C° 0 mm 5 m/S 734 mmHg 76%
12:00 +9°C° 0.1 mm 5 m/S 734 mmHg 75%
13:00 +10°C° 0.1 mm 5 m/S 734 mmHg 75%
14:00 +11°C° 0.1 mm 4 m/S 733 mmHg 74%
15:00 +11°C° 0.1 mm 4 m/S 733 mmHg 75%
16:00 +10°C° 0.1 mm 3 m/S 733 mmHg 77%
17:00 +10°C° 0.1 mm 3 m/S 733 mmHg 78%
18:00 +9°C° 0 mm 2 m/S 733 mmHg 81%
19:00 +10°C° 0 mm 1 m/S 733 mmHg 84%
20:00 +8°C° 0 mm 0 m/S 733 mmHg 86%
21:00 +9°C° 0 mm 1 m/S 733 mmHg 87%
22:00 +9°C° 0 mm 1 m/S 733 mmHg 88%
23:00 +8°C° 0 mm 1 m/S 733 mmHg 89%
Mehr zeigen

Wir brauchen deine Erlaubnis

Meteoprog und unser Service Anbieter werden persönliche Daten aufbewahren, so wie Cookies, Geräte Bezeichnung oder ähnliche Technologien von deinem Gerät und Prozess, so wie Persönliche Daten Inhalte und Werbungen, genauso wie social Media und den Verkehr zu analysieren.

  • Aufbewahrung und/oder Zugang zu deiner Geräte Informationen.

    Cookies, Geräte Bezeichnung oder andere Informationen, können aufbewahrt oder Zugang zu deinem Gerät erhalten, für den Grund, der oben angegeben wird.

  • Personalisierte Werbung und Inhalte, Messungen, Einblick in das Publikum und Produkt Entwicklung.

    Werbungen und Inhalte können personalisiert werden, basierend auf ein Profil. Mehr Daten können besser personalisierte Werbungen und Inhalte hinzufügen. Werbung und Inhalte können gezeigt und gemessen werden. Einblicke über das Publikum, welche die Werbung gesehen haben und den Inhalt, können abgeleitet werden. So wie Daten können genutzt werden, um es zu verbessern oder die Benutzer Erfahrung zu verbessern das System und die Software.

Wenn du “Ich stimme zu” klickst, erlaubst du uns, die Cookies zu benutzen die Geräte Bezeichnung, den Web oder ähnliche Technologien zu benutzen. Deine Settings, können in deinem Gerät bei deinem Browser geändert werden.

Für den bestimmten Zweck, berechtigten Interessen beruhen darauf, mehr als auf den Inhalt. Du kannst mehr darüber in unseren Privaten und Cookie Politik lesen.